Terminal Aerodrome Forecast
Issued by NWS

Home | Current Version | Previous Version | Text Only | Print | Product List | Glossary On
Versions: 1 2 3 4 5 6 7 8 9 10 11 12 13 14 15 16 17 18 19 20 21 22 23 24
593
FTUS41 KGYX 261133
TAFLEB
TAF
KLEB 261133Z 2612/2712 00000KT 1/4SM FG VV001
      TEMPO 2612/2613 2SM BR BKN007
     FM261300 00000KT P6SM SCT035
     FM270000 00000KT 6SM BR BKN250
     FM270500 00000KT 4SM BR SKC=

USA.gov is the U.S. government's official web portal to all federal, state and local government web resources and services.